This demonstration page uses our WeatherBlox Daily Observations layout. Learn more.

39.29038, -76.61219

Hourly Observations for July 2, 2019

Temp ( °F °C ) Dew Point ( °F °C ) Humidity (%) Winds ( mph kmh ) Pressure ( in mb ) Visibility ( mi km ) Precip ( " mm )
12:54 am 00:54 undefined 75 23.9 62 16.7 64 64 undefined N/A 29.91 1013 N/A 0 0
1:54 am 01:54 undefined 74 23.3 62 16.7 67 67 undefined N/A 29.91 1013 N/A 0 0
2:54 am 02:54 undefined 73 22.8 63 17.2 71 71 undefined N/A 29.91 1013 N/A 0 0
3:54 am 03:54 undefined 73 22.8 62 16.7 69 69 undefined N/A 29.91 1013 N/A 0 0
4:54 am 04:54 undefined 71 21.7 61 16.1 71 71 undefined N/A 29.91 1013 N/A 0 0
5:54 am 05:54 undefined 71 21.7 59 15 66 66 undefined N/A 29.91 1013 N/A 0 0
6:54 am 06:54 undefined 74 23.3 60 15.6 62 62 undefined N/A 29.91 1013 N/A 0 0
7:54 am 07:54 undefined 79 26.1 61 16.1 54 54 undefined N/A 29.91 1013 N/A 0 0
8:54 am 08:54 undefined 83 28.3 61 16.1 48 48 undefined N/A 29.91 1013 N/A 0 0
9:54 am 09:54 undefined 86 30 61 16.1 43 43 undefined N/A 29.88 1012 N/A 0 0
10:54 am 10:54 undefined 88 31.1 63 17.2 43 43 undefined N/A 29.88 1012 N/A 0 0
11:54 am 11:54 undefined 91 32.8 65 18.3 42 42 undefined N/A 29.85 1011 N/A 0 0
12:54 pm 12:54 undefined 93 33.9 67 19.4 42 42 undefined N/A 29.85 1011 N/A 0 0
1:54 pm 13:54 undefined 92 33.3 67 19.4 44 44 undefined N/A 29.83 1010 N/A 0 0
2:54 pm 14:54 undefined 95 35 69 20.6 43 43 undefined N/A 29.83 1010 N/A 0 0
3:54 pm 15:54 undefined 95 35 68 20 41 41 undefined N/A 29.8 1009 N/A 0 0
4:54 pm 16:54 undefined 95 35 67 19.4 40 40 undefined N/A 29.77 1008 N/A 0 0
5:54 pm 17:54 undefined 93 33.9 67 19.4 42 42 undefined N/A 29.77 1008 N/A 0 0
6:54 pm 18:54 undefined 87 30.6 66 18.9 50 50 undefined N/A 29.77 1008 N/A 0 0
7:54 pm 19:54 undefined 79 26.1 67 19.4 67 67 undefined N/A 29.83 1010 N/A 0 0
8:54 pm 20:54 undefined 74 23.3 69 20.6 85 85 undefined N/A 29.83 1010 N/A 0.06 1.524
9:54 pm 21:54 undefined 73 22.8 69 20.6 87 87 undefined N/A 29.83 1010 N/A 0.03 0.762
10:54 pm 22:54 undefined 74 23.3 70 21.1 88 88 undefined N/A 29.83 1010 N/A 0 0
11:54 pm 23:54 undefined 75 23.9 70 21.1 84 84 undefined N/A 29.83 1010 N/A 0 0

Powered by AerisWeather